This demonstration page uses our WeatherBlox Daily Observations layout. Learn more.

Left ArrowRight Arrow

Hourly Observations for February 19, 2022

Temp ( °F °C ) Dew Point ( °F °C ) Humidity (%) Winds ( mph kmh ) Pressure ( in mb ) Visibility ( mi km ) Precip ( " mm )
12:56 am 00:56 undefined 22 -5.5 -3 -19.6 32 32 NNW 17 28 30.47 1032 10 16 0.00 0.00
1:56 am 01:56 Clear 20 -6.9 -3 -19.5 36 36 NNW 13 20 30.50 1033 10 16 0.00 0.00
2:56 am 02:56 Clear 18 -7.9 -2 -18.9 41 41 N 9 15 30.49 1033 10 16 0.00 0.00
3:56 am 03:56 Mostly Clear 17 -8.6 -2 -19 43 43 N 12 19 30.50 1033 10 16 0.00 0.00
4:56 am 04:56 Clear 15 -9.5 -2 -19 46 46 NNW 6 9 30.51 1033 10 16 0.00 0.00
5:56 am 05:56 Clear 14 -10 -2 -19 48 48 NNW 9 15 30.53 1034 10 16 0.00 0.00
6:56 am 06:56 Clear 13 -10.6 -1 -18.6 52 52 Calm 30.55 1035 10 16 0.00 0.00
7:56 am 07:56 Sunny 14 -10 -2 -18.7 49 49 Calm 30.56 1035 10 16 0.00 0.00
8:56 am 08:56 Sunny 15 -9.2 -1 -18.2 48 48 Calm 30.59 1036 10 16 0.00 0.00
9:56 am 09:56 Sunny 17 -8.1 -1 -18.2 44 44 Calm 30.57 1035 10 16 0.00 0.00
10:56 am 10:56 Sunny 22 -5.6 0 -18 37 37 SE 6 9 30.55 1035 10 16 0.00 0.00
11:56 am 11:56 undefined 27 -2.9 -1 -18.5 29 29 S 7 11 30.52 1033 10 16 0.00 0.00
12:56 pm 12:56 undefined 30 -1.2 -2 -18.8 25 25 S 10 17 30.44 1031 10 16 0.00 0.00
1:31 pm 13:31 undefined 32 0 0 -18 25 25 SSE 16 26 30.40 1029 10 16 0.00 0.00
1:56 pm 13:56 Sunny 33 0.6 -2 -18.7 22 22 S 14 22 30.37 1029 10 16 0.00 0.00
2:56 pm 14:56 Sunny 36 2.1 -3 -19.2 19 19 S 16 26 30.32 1027 10 16 0.00 0.00
3:21 pm 15:21 Sunny 37 3 -2 -19 18 18 S 18 30 30.29 1026 10 16 0.00 0.00
3:56 pm 15:56 Sunny 37 2.9 -2 -19.1 18 18 S 18 30 30.25 1025 10 16 0.00 0.00
4:56 pm 16:56 Sunny 38 3.2 -2 -18.9 18 18 S 16 26 30.20 1023 10 16 0.00 0.00
5:56 pm 17:56 Sunny 37 2.5 -2 -18.8 19 19 S 15 24 30.16 1022 10 16 0.00 0.00
6:56 pm 18:56 undefined 34 1 2 -16.9 25 25 SSE 12 19 30.14 1021 10 16 0.00 0.00
7:56 pm 19:56 undefined 33 0.3 1 -17.5 25 25 S 17 28 30.11 1020 10 16 0.00 0.00
8:56 pm 20:56 undefined 31 -0.8 4 -15.8 31 31 S 9 15 30.10 1019 10 16 0.00 0.00
9:56 pm 21:56 Clear 30 -1 6 -14.6 35 35 S 12 19 30.08 1019 10 16 0.00 0.00
10:56 pm 22:56 Clear 28 -2.3 8 -13.5 42 42 ESE 5 7 30.04 1017 10 16 0.00 0.00
11:56 pm 23:56 Clear 26 -3.5 9 -12.7 49 49 SE 8 13 29.97 1015 10 16 0.00 0.00

Powered by AerisWeather